Regional Weather Roundup
Issued by NWS

Home | Current Version | Previous Version | Graphics & Text | Print | Product List | Glossary On
Versions: 1 2 3 4 5 6 7 8 9 10 11 12 13 14 15 16 17 18 19 20 21 22 23 24 25 26 27 28 29 30 31 32 33 34 35 36 37 38 39 40 41 42 43 44 45 46 47 48 49 50
000
ASUS43 KMPX 020410
RWRMN
WEATHER ROUNDUP FOR MINNESOTA
NATIONAL WEATHER SERVICE TWIN CITIES/CHANHASSEN MN
1100 PM CDT SUN MAY 01 2016


NOTE: "FAIR" INDICATES FEW OR NO CLOUDS BELOW 12,000 FEET WITH NO
SIGNIFICANT WEATHER AND/OR OBSTRUCTIONS TO VISIBILITY. N/A MEANS
CURRENT SKY AND/OR WEATHER CONDITIONS ARE NOT AVAILABLE.

MNZ060>063-068>070-020500-
   Twin Cities Metro

CITY           SKY/WX    TMP DP  RH WIND       PRES   REMARKS
TWIN CITIES    CLEAR     54  35  48 N12       30.11R
ST PAUL        CLEAR     52  35  52 N7        30.12R
CRYSTAL        CLEAR     53  36  52 N6        30.11S
BLAINE         CLEAR     52  37  58 N8        30.12S
EDEN PRAIRIE   CLEAR     53  34  48 N6        30.10S
SOUTH ST PAUL  CLEAR     52  34  50 N6        30.11R
LAKE ELMO      FAIR      52  34  50 N6        30.11S
$$
MNZ001>005-007-008-013>017-022>024-027-028-020500-
   Northwest Minnesota

CITY           SKY/WX    TMP DP  RH WIND       PRES   REMARKS
BEMIDJI        CLEAR     37  28  70 CALM      30.13S
HALLOCK        CLOUDY    52  25  35 SE7       30.11S
ROSEAU         PTCLDY    48  28  46 CALM      30.13F
WARROAD        CLEAR     43  36  75 CALM      30.14F
THIEF RVR FALL CLEAR     46  21  36 E3        30.15S
CROOKSTON      CLEAR     54  27  35 SE6       30.14S
FOSSTON        CLEAR     45  28  53 CALM      30.15S
DETROIT LAKES  CLEAR     52  34  50 CALM      30.15R
MOORHEAD       CLEAR     52  28  40 CALM      30.14S
PARK RAPIDS    CLEAR     45  31  58 CALM      30.13S
MAHNOMEN       FAIR      48  29  48 SE3       30.13S
$$
MNZ006-009>011-018-025>026-020500-
   North Central Minnesota

CITY           SKY/WX    TMP DP  RH WIND       PRES   REMARKS
BAUDETTE       CLEAR     40  31  70 CALM      30.13F
FLAG ISLAND    CLEAR     48  32  53 CALM      30.12S
INTL FALLS     CLEAR     34  31  88 CALM      30.13S
WASKISH        CLEAR     45  37  76 CALM      30.14S
BIG FORK       CLEAR     39  30  70 CALM      30.13F
LONGVILLE      CLEAR     39  34  81 CALM      30.12F
GRAND RAPIDS   CLEAR     46  28  49 SE5       30.14S
CRANE LAKE     CLEAR     34  30  86 CALM      30.15F
ORR            CLEAR     43  34  70 CALM      30.11F
COOK           CLEAR     43  32  65 CALM      30.15S
WALKER         FAIR      43  31  61 SW3       30.13S
$$
MNZ012-019>021-037-020500-
   Northeast Minnesota

CITY           SKY/WX    TMP DP  RH WIND       PRES   REMARKS
DULUTH         CLEAR     40  30  67 E6        30.14F
ELY            CLEAR     43  30  61 CALM      30.14S
HIBBING        CLEAR     36  31  82 CALM      30.14S
EVELETH        CLEAR     36  30  80 CALM      30.16S
DULUTH HARBOR  CLEAR     39  36  87 CALM      30.18S
TWO HARBORS    CLEAR     39  34  81 N3        30.14F
SILVER BAY     CLEAR     34  30  86 CALM      30.14F
GRAND MARAIS     N/A     36  31  82 NW3       30.16F
G MARAIS ARPRT CLEAR     34  27  75 CALM      30.16S
$$
MNZ029>031-032-039>041-046>048-054>057-064-020500-
   West Central Minnesota

CITY           SKY/WX    TMP DP  RH WIND       PRES   REMARKS
FERGUS FALLS   CLEAR     54  30  40 CALM      30.11S
WHEATON        CLEAR     52  36  54 SW3       30.15F
MORRIS         CLEAR     50  30  46 CALM      30.13S
ALEXANDRIA     CLEAR     47  31  53 S3        30.14S
ELBOW LAKE     FAIR      49  38  65 CALM      30.13F
WADENA         CLEAR     43  30  61 W3        30.13S
GLENWOOD       CLEAR     48  30  49 S3        30.14S
APPLETON       CLEAR     45  36  70 CALM      30.14R
BENSON         CLEAR     39  30  70 CALM      30.14S
ORTONVILLE     CLEAR     48  34  57 CALM      30.14S
MADISON        CLEAR     48  30  49 CALM      30.14S
WILLMAR        FAIR      46  34  61 CALM      30.15S
$$
MNZ033>034-036-042>043-049>051-058-059-020500-
   Central Minnesota

CITY           SKY/WX    TMP DP  RH WIND       PRES   REMARKS
ST CLOUD       CLEAR     48  32  53 CALM      30.13S
SAUK CENTRE    FAIR      44  33  64 CALM      30.14S
PAYNESVILLE    CLEAR     42  32  67 CALM      30.14S
AITKIN         CLEAR     39  28  65 CALM      30.13R
PINE RIVER     CLEAR     41  34  75 CALM      30.16S
BRAINERD       CLEAR     44  32  62 CALM      30.13F
STAPLES        CLEAR     45  34  65 CALM      30.13S
LONG PRAIRIE   FAIR      43  34  70 CALM      30.14S
LITTLE FALLS   CLEAR     45  32  61 CALM      30.14S
LITCHFIELD     CLEAR     48  43  81 CALM      30.14S
BUFFALO        CLEAR     49  34  56 NE3       30.14R
MAPLE LAKE     CLEAR     49  37  61 N3        30.14S
HUTCHINSON     CLOUDY    46  36  69 NW3       30.14S
$$
MNZ037-044-045-052-053-020500-
   East Central Minnesota

CITY           SKY/WX    TMP DP  RH WIND       PRES   REMARKS
PRINCETON      CLEAR     48  34  57 NE3       30.14S
MORA           CLEAR     41  32  70 CALM      30.15F
CAMBRIDGE      CLEAR     52  36  54 CALM      30.11F
RUSH CITY      PTCLDY    45  33  61 CALM      30.13F
MOOSE LAKE     CLEAR     41  32  70 NE3       30.13S
HINCKLEY       FAIR      41  32  70 N5        30.13F
CLOQUET        CLEAR     39  30  70 CALM      30.14S
MCGREGOR       CLEAR     45  32  61 CALM      30.14S
$$
MNZ071>073-080-081-089-090-097-098-020500-
   Southwest Minnesota

CITY           SKY/WX    TMP DP  RH WIND       PRES   REMARKS
MONTEVIDEO     CLEAR     48  30  49 CALM      30.15F
GRANITE FALLS  CLEAR     47  33  57 CALM      30.15F
CANBY          CLEAR     46  39  76 S3        30.15F
MARSHALL       CLEAR     45  34  65 W5        30.15R
REDWOOD FALLS  CLEAR     49  31  49 CALM      30.13S
OLIVIA         CLEAR     48  32  53 CALM      30.13S
PIPESTONE      CLEAR     48  34  57 CALM      30.15R
WINDOM         CLEAR     43  37  81 CALM      30.14R
WORTHINGTON    CLEAR     42  39  89 W5        30.16R
JACKSON        CLEAR     43  37  81 CALM      30.14S
TRACY          CLEAR     45  35  68 CALM      30.14S
SLAYTON        CLEAR     44  35  70 CALM      30.16R
$$
MNZ065>067-074>077-082>085-091>093-020500-
   South Central Minnesota

CITY           SKY/WX    TMP DP  RH WIND       PRES   REMARKS
MANKATO        PTCLDY    52  34  50 NW7       30.11S
NEW ULM        CLEAR     46  36  66 N6        30.12F
ST JAMES       CLEAR     43  34  70 NW3       30.13S
FAIRMONT       CLEAR     48  36  61 NW5       30.12R
GLENCOE        CLEAR     49  39  67 NW5       30.12S
FARIBAULT      CLEAR     46  37  71 CALM      30.11R
OWATONNA       CLEAR     46  41  81 CALM      30.11S
WASECA         CLEAR     46  39  76 S3        30.12S
ALBERT LEA     CLOUDY    48  43  81 W2        30.10S
$$
MNZ078>079-086>088-094>096-020500-
   Southeast Minnesota

CITY           SKY/WX    TMP DP  RH WIND       PRES   REMARKS
ROCHESTER      CLEAR     45  41  86 W9        30.10S
RED WING       CLEAR     52  36  54 N5        30.08R
STANTON        CLEAR     48  37  65 CALM      30.09R
DODGE CENTER   PTCLDY    43  39  87 W5        30.10S
WINONA         CLOUDY    48  43  81 CALM      30.09R
AUSTIN         CLEAR     46  41  81 CALM      30.10S
PRESTON        CLEAR     43  39  85 NW5       30.09S
$$
ABBREVIATIONS USED IN REMARKS
   TC - TEMPERATURES IN CELSIUS
  WCI - WIND CHILL INDEX
   HX - HEAT INDEX
  VSB - VISIBILITY
$$




USA.gov is the U.S. government's official web portal to all federal, state and local government web resources and services.